Simultaneous Nadir Overpasses (SNOs) Predictions

Prediction of SNOs between NOAA-19 and NPP Satellite Orbit:

Table of predicted SNOs for the next 14.0 days since TLE Epoch: 3/22/2013
Index Date (NOAA-19) Time (NOAA-19) Lat,Lon (NOAA-19) SZA (NOAA-19 ) Date (NPP) Time (NPP) Lat,Lon (NPP) SZA (NPP ) Distance(km) Time Diff (sec)
1 03/31/2013 14:05:11 -80.90, 96.43 99.78 03/31/2013 14:06:21 -80.90, 96.59 99.84 2.76 70
2 03/31/2013 14:56:10 80.88, -95.84 80.14 03/31/2013 14:57:05 80.88, -95.74 80.09 1.68 55
3 03/31/2013 15:47:13 -80.86, 71.88 99.96 03/31/2013 15:47:49 -80.86, 71.91 99.98 0.55 36
4 03/31/2013 16:38:12 80.84,-120.38 79.96 03/31/2013 16:38:33 80.84,-120.42 79.96 0.57 21
5 03/31/2013 17:29:15 -80.82, 47.33 100.13 03/31/2013 17:29:17 -80.82, 47.23 100.12 1.64 2
6 03/31/2013
